FENGYUN 1C DEB, 38801

Orbit data source: Space-Track

FENGYUN 1C DEB, 38801 is space debris in SSO originally from a launch on Mon, 10 May 1999 UTC launched from the Taiyaun Space Center, China (TSC). Fengyun 1C debris stems from the Chinese weather satellite Fengyun-1C, which was intentionally destroyed by a Chinese anti-satellite missile in 2007. This event dramatically increased the amount of space debris, with thousands of trackable fragments posing hazards to satellites and human spaceflight. The Fengyun 1C debris cloud has become a focal point in discussions about space sustainability and the need for international regulations to prevent the creation of new debris.

Loading next visibility...
Identifier
38801, 1999-025EUR
Orbit
SSO
Country
Flag of CNCN / PRC
Related business
Manufacturer
Unknown
Mission
Spacecraft
Bus & Motor
Unknown
Mass
Unknown
Launch date (UTC)
1999-05-10 (27 years ago)
Launch vehicle
Unknown
Launch site
Taiyaun Space Center, China (TSC)
Object type
Payload
Rocket body
Debris
Shape & HBR
Unknown shape, 0.1 m
Radar Cross Section
Small (<0.1 m²)

Expand to show TLE details & history
Last TLE update: 6 days ago

TLE from 6 days ago
0 FENGYUN 1C DEB
1 38801U 99025EUR 26249.93784931  .00000731  00000-0  17835-3 0  9990
2 38801  98.3404 293.5579 0341967 282.3625 202.4949 14.26004972681817
Epoch: 2026-09-06T22:30Z
TLE epoch observation values (Epoch: 2026-09-06T22:30:30.180Z)
Latitude
55.77331°
Longitude
162.28686°
Altitude
1,042.542 km
Speed
7.218 km/s
True Right ascension
08h 23m 45s
True Declination
55° 37' 10"
Sunlit
Object was in daylight at epoch
Visualization orbit readout
Latitude
Unknown
Longitude
Unknown
Altitude
Unknown
Speed
Unknown
Apparent Right ascension
Unknown
Apparent Declination
Unknown
Sunlit
N/A
Visualization observer readout
Local Sidereal Time
18:51:46
Azimuth
Unknown
Elevation
Unknown
Doppler factor
Unknown
Orbital elements
Apogee altitude
1,047.789 km
Perigee altitude
556.699 km
Semi-major axis
7,180.381 km
Eccentricity
0.0342
Inclination
98.3404°
RAAN
293.5579°
Arg. of periapsis
282.3625°
True anomaly
201.05281°
Mean anomaly
202.4949°
Eccentric anomaly
201.76828°
Mean motion
3.56715 °/min
Orbital period
100.92 mins
BSTAR
0.00017835
Loading maneuver chart data...
Computing Atmospheric mass density...

Documentation

Showing up to 5 results
|